DW3753 Weather Reports


Display with metric or nautical units.
time (UTC)temp
F
wind
direction
speed
MPH
gust
MPH
rain 1hr
in
rain 24hr
in
rain mn
in
humidity
%
barometer
mb
20260508000044 70 185 3.0 7.0 0.00 0.00 0.00 55 1012.8
20260507235526 70 178 4.0 9.0 0.00 0.00 0.00 53 1013.0
20260507234044 70 170 5.0 9.0 0.00 0.00 0.00 54 1013.1
20260507233524 70 186 4.0 8.0 0.00 0.00 0.00 54 1013.0
20260507232042 70 185 5.0 8.0 0.00 0.00 0.00 54 1013.0
20260507231043 70 203 5.0 9.0 0.00 0.00 0.00 53 1013.1
20260507230044 71 217 5.0 9.0 0.00 0.00 0.00 53 1013.0
20260507225038 71 184 4.0 8.0 0.00 0.00 0.00 54 1013.2
20260507224039 71 194 5.0 9.0 0.00 0.00 0.00 53 1013.2
20260507223038 71 200 6.0 11.0 0.00 0.00 0.00 54 1013.2
20260507222040 71 182 4.0 8.0 0.00 0.00 0.00 53 1013.3
20260507221038 72 78 0.0 3.0 0.00 0.00 0.00 49 1013.3
20260507220039 72 75 1.0 5.0 0.00 0.00 0.00 49 1013.4
20260507215038 72 85 1.0 5.0 0.00 0.00 0.00 49 1013.3
20260507214038 72 93 1.0 4.0 0.00 0.00 0.00 49 1013.6
20260507213038 72 82 0.0 3.0 0.00 0.00 0.00 50 1013.7
20260507212040 72 69 1.0 3.0 0.00 0.00 0.00 50 1013.9
20260507211038 72 113 1.0 4.0 0.00 0.00 0.00 48 1013.9
20260507210042 73 163 1.0 5.0 0.00 0.00 0.00 48 1014.2
20260507205043 73 191 2.0 8.0 0.00 0.00 0.00 48 1014.2
20260507204039 73 63 1.0 6.0 0.00 0.00 0.00 50 1014.2
20260507203044 72 59 1.0 7.0 0.00 0.00 0.00 49 1014.0
20260507202040 72 60 1.0 5.0 0.00 0.00 0.00 50 1014.0
20260507201039 73 50 1.0 7.0 0.00 0.00 0.00 49 1014.2
20260507200040 73 0 1.0 6.0 0.00 0.00 0.00 50 1014.4
20260507195520 72 9 2.0 10.0 0.00 0.00 0.00 52 1014.7
20260507194043 72 55 2.0 11.0 0.00 0.00 0.00 50 1014.6
20260507193043 71 71 3.0 10.0 0.00 0.00 0.00 52 1014.8
20260507192042 72 9 2.0 6.0 0.00 0.00 0.00 53 1015.1
20260507191039 71 69 2.0 7.0 0.00 0.00 0.00 52 1015.3
20260507190038 70 5 2.0 10.0 0.00 0.00 0.00 52 1015.5
20260507185040 71 63 2.0 9.0 0.00 0.00 0.00 53 1015.6
20260507184040 70 322 3.0 10.0 0.00 0.00 0.00 55 1015.5
20260507183036 69 341 3.0 10.0 0.00 0.00 0.00 54 1015.6
20260507182036 69 49 4.0 11.0 0.00 0.00 0.00 54 1015.8
20260507181036 69 71 2.0 9.0 0.00 0.00 0.00 54 1015.8
20260507180035 69 355 2.0 9.0 0.00 0.00 0.00 52 1015.9
20260507175036 69 350 3.0 11.0 0.00 0.00 0.00 53 1016.2
20260507174036 68 355 2.0 9.0 0.00 0.00 0.00 56 1016.3
20260507173035 67 74 3.0 8.0 0.00 0.00 0.00 53 1016.4
20260507172039 67 5 2.0 8.0 0.00 0.00 0.00 56 1016.8
20260507171035 67 59 3.0 10.0 0.00 0.00 0.00 55 1017.2
20260507170520 66 84 2.0 9.0 0.00 0.00 0.00 58 1017.4
20260507165036 66 63 2.0 8.0 0.00 0.00 0.00 57 1017.6
20260507164034 65 15 3.0 10.0 0.00 0.00 0.00 60 1017.7
20260507163036 65 57 1.0 12.0 0.00 0.00 0.00 59 1017.7
20260507162036 65 67 2.0 8.0 0.00 0.00 0.00 60 1017.7
20260507161036 65 42 2.0 7.0 0.00 0.00 0.00 61 1017.8
20260507160038 64 12 1.0 4.0 0.00 0.00 0.00 62 1017.6
20260507155035 64 17 1.0 4.0 0.00 0.00 0.00 62 1017.7
20260507154527 63 59 2.0 9.0 0.00 0.00 0.00 65 1017.8
20260507153036 63 73 2.0 8.0 0.00 0.00 0.00 64 1017.9
20260507152036 63 315 1.0 9.0 0.00 0.00 0.00 67 1017.9
20260507151036 62 24 2.0 7.0 0.00 0.00 0.00 69 1018.1
20260507150034 62 78 2.0 8.0 0.00 0.01 0.00 69 1018.2
20260507145515 61 47 1.0 8.0 0.00 0.03 0.00 72 1018.2
20260507144034 60 68 2.0 6.0 0.00 0.03 0.00 76 1018.2
20260507143507 60 325 1.0 4.0 0.00 0.03 0.00 78 1018.3
20260507142034 59 355 2.0 6.0 0.00 0.03 0.00 81 1018.4
20260507141032 58 350 3.0 8.0 0.00 0.03 0.00 83 1018.4
20260507140035 56 336 4.0 8.0 0.00 0.03 0.00 83 1018.3
20260507135033 55 329 4.0 6.0 0.00 0.03 0.00 84 1018.5
20260507134034 55 332 4.0 6.0 0.00 0.03 0.00 87 1018.6
20260507133032 54 313 4.0 8.0 0.00 0.03 0.00 87 1018.6
20260507133002 54 342 3.0 8.0 0.00 0.03 0.00 88 1018.6
20260507131030 53 315 3.0 6.0 0.00 0.03 0.00 88 1018.5
20260507130028 53 323 3.0 6.0 0.00 0.03 0.00 88 1018.6
20260507125031 53 333 1.0 3.0 0.00 0.03 0.00 88 1018.4
20260507124028 53 304 1.0 2.0 0.00 0.03 0.00 88 1018.2
20260507123028 52 340 2.0 4.0 0.00 0.03 0.00 88 1018.1
20260507122028 52 318 2.0 4.0 0.00 0.03 0.00 88 1018.1
20260507121028 52 314 1.0 2.0 0.00 0.03 0.00 88 1018.2
20260507120503 52 317 2.0 4.0 0.00 0.03 0.00 87 1018.1
20260507115024 52 343 3.0 5.0 0.00 0.03 0.00 87 1017.8
20260507114023 52 335 3.0 6.0 0.00 0.03 0.00 87 1017.7
20260507113021 52 344 3.0 9.0 0.00 0.03 0.00 87 1017.6
20260507112023 52 342 5.0 9.0 0.00 0.03 0.00 87 1017.9
20260507111023 52 355 5.0 8.0 0.00 0.03 0.00 87 1017.9
20260507110021 51 338 3.0 5.0 0.00 0.03 0.00 88 1017.9
20260507105021 51 298 3.0 5.0 0.00 0.03 0.00 88 1017.8
20260507104023 51 327 3.0 5.0 0.00 0.03 0.00 87 1017.6
20260507103025 51 323 2.0 5.0 0.00 0.03 0.00 87 1017.4
20260507102020 51 315 2.0 3.0 0.00 0.03 0.00 87 1017.2
20260507101021 51 317 2.0 4.0 0.00 0.03 0.00 87 1017.1
20260507100021 51 323 3.0 5.0 0.00 0.03 0.00 87 1016.9
20260507095018 51 332 2.0 4.0 0.00 0.03 0.00 86 1016.7
20260507094504 52 347 1.0 3.0 0.00 0.03 0.00 86 1016.8
20260507093019 52 350 0.0 3.0 0.00 0.03 0.00 85 1016.6
20260507092020 52 355 0.0 1.0 0.00 0.03 0.00 85 1016.2
20260507091019 52 355 0.0 2.0 0.00 0.03 0.00 85 1015.9
20260507090019 53 5 0.0 2.0 0.00 0.03 0.00 85 1015.7
20260507085020 53 21 0.0 2.0 0.00 0.03 0.00 84 1015.8
20260507084018 53 12 0.0 1.0 0.00 0.03 0.00 84 1015.9
20260507083014 53 0 0.0 1.0 0.00 0.03 0.00 84 1016.2
20260507082014 53 0 0.0 2.0 0.00 0.03 0.00 84 1016.2
20260507081011 53 351 1.0 4.0 0.00 0.03 0.00 83 1016.1
20260507080010 53 347 0.0 4.0 0.00 0.03 0.00 83 1016.0
20260507075011 53 346 1.0 4.0 0.00 0.03 0.00 83 1016.0
20260507074010 53 341 2.0 5.0 0.00 0.03 0.00 82 1015.9
20260507073442 54 350 0.0 4.0 0.00 0.03 0.00 81 1015.8
20260507072012 54 5 0.0 2.0 0.00 0.03 0.00 81 1015.7
20260507071010 55 5 1.0 5.0 0.00 0.03 0.00 81 1015.6
20260507070012 55 0 0.0 3.0 0.00 0.03 0.00 80 1015.5
20260507065005 55 0 0.0 3.0 0.00 0.03 0.00 80 1015.5
20260507064436 55 5 0.0 2.0 0.00 0.03 0.00 79 1015.4
20260507063003 55 40 0.0 2.0 0.00 0.03 0.00 79 1015.4
20260507062006 56 30 0.0 3.0 0.00 0.03 0.00 79 1015.4
20260507061004 56 31 1.0 4.0 0.00 0.03 0.00 79 1015.3
20260507060004 56 64 0.0 3.0 0.00 0.03 0.00 78 1015.1
20260507055002 56 59 1.0 4.0 0.00 0.03 0.00 78 1015.0
20260507054002 56 63 1.0 3.0 0.00 0.03 0.00 78 1015.1
20260507053007 56 71 1.0 4.0 0.00 0.03 0.00 77 1015.1
20260507052004 56 65 1.0 5.0 0.00 0.03 0.00 77 1015.1
20260507051003 56 70 1.0 3.0 0.00 0.03 0.00 77 1015.1
20260507050439 57 64 1.0 3.0 0.00 0.03 0.00 77 1015.1
20260507045002 57 72 1.0 6.0 0.00 0.03 0.03 76 1015.0
20260507044445 57 67 2.0 7.0 0.00 0.03 0.03 76 1014.9
20260507043006 57 69 2.0 6.0 0.00 0.03 0.03 75 1015.1
20260507042001 58 58 3.0 8.0 0.00 0.03 0.03 74 1015.1
20260507041002 58 71 4.0 9.0 0.00 0.03 0.03 74 1015.3
20260507035957 58 61 4.0 12.0 0.00 0.03 0.03 73 1015.4
20260507035452 59 19 3.0 11.0 0.00 0.03 0.03 73 1015.3
20260507033959 59 78 2.0 11.0 0.00 0.03 0.03 72 1015.3
20260507033439 59 53 3.0 8.0 0.00 0.03 0.03 72 1015.3
20260507032449 59 26 3.0 7.0 0.00 0.03 0.03 72 1015.1
20260507030956 59 57 2.0 9.0 0.00 0.03 0.03 72 1015.1
20260507025955 60 67 2.0 8.0 0.00 0.03 0.03 72 1015.3
20260507024954 60 33 2.0 9.0 0.00 0.03 0.03 72 1014.9
20260507023948 60 26 2.0 8.0 0.00 0.03 0.03 71 1014.7
20260507022949 60 355 3.0 9.0 0.00 0.03 0.03 71 1014.5
20260507021947 61 339 2.0 11.0 0.00 0.03 0.03 71 1014.4
20260507020954 61 5 2.0 5.0 0.00 0.03 0.03 71 1014.1
20260507015948 61 0 1.0 4.0 0.00 0.03 0.03 72 1014.0
20260507014948 62 33 2.0 7.0 0.00 0.03 0.03 72 1013.7
20260507013946 62 12 2.0 7.0 0.00 0.03 0.03 71 1013.6
20260507012946 62 344 1.0 5.0 0.00 0.03 0.03 71 1013.3
20260507012426 62 5 1.0 5.0 0.00 0.03 0.03 70 1013.1
20260507011423 63 69 1.0 3.0 0.00 0.03 0.03 70 1012.9
20260507010433 63 33 1.0 8.0 0.00 0.03 0.03 70 1012.8
20260507004946 63 40 2.0 7.0 0.00 0.03 0.03 69 1012.6
20260507003946 64 52 1.0 4.0 0.00 0.03 0.03 68 1012.5
20260507002943 64 5 2.0 5.0 0.00 0.03 0.03 66 1012.3
20260507002421 65 17 1.0 5.0 0.00 0.03 0.03 67 1012.3
20260507000943 65 335 1.0 5.0 0.00 0.03 0.03 67 1012.4